G6UIM Weather Reports


time (UTC)temp
C
wind
direction
speed
KPH
gust
KPH
rain 1hr
cm
rain 24hr
cm
rain mn
cm
humidity
%
barometer
mb
20260507174036 12 90 1.6 6.4 0.00 0.00 0.00 77 1015.2
20260507173016 12 113 1.6 4.8 0.00 0.00 0.00 77 1015.3
20260507172016 12 23 1.6 6.4 0.00 0.00 0.00 77 1015.3
20260507171016 12 113 3.2 8.0 0.00 0.00 0.00 77 1015.4
20260507170016 12 135 1.6 9.7 0.00 0.00 0.00 76 1015.5
20260507165016 13 68 1.6 6.4 0.00 0.00 0.00 75 1015.6
20260507164016 13 90 3.2 8.0 0.00 0.00 0.00 73 1015.4
20260507163016 13 90 1.6 6.4 0.00 0.00 0.00 73 1015.5
20260507162016 13 90 3.2 6.4 0.00 0.00 0.00 73 1015.5
20260507161016 13 90 3.2 8.0 0.00 0.00 0.00 72 1015.3
20260507160016 13 113 1.6 8.0 0.00 0.00 0.00 72 1015.6
20260507155016 13 113 1.6 4.8 0.00 0.00 0.00 71 1015.6
20260507154016 13 135 1.6 6.4 0.00 0.00 0.00 70 1015.6
20260507153016 13 113 3.2 6.4 0.00 0.00 0.00 72 1015.7
20260507152016 13 90 1.6 6.4 0.00 0.00 0.00 71 1015.7
20260507151016 13 113 3.2 8.0 0.00 0.00 0.00 71 1015.7
20260507150016 13 90 3.2 9.7 0.00 0.00 0.00 70 1015.8
20260507145016 13 0.0 4.8 0.00 0.00 0.00 70 1015.9
20260507144016 13 113 1.6 6.4 0.00 0.00 0.00 69 1016.0
20260507143016 13 113 1.6 6.4 0.00 0.00 0.00 67 1016.0
20260507142036 13 135 4.8 11.3 0.00 0.00 0.00 63 1016.1
20260507141016 14 113 1.6 6.4 0.00 0.00 0.00 57 1016.2
20260507140016 13 135 6.4 12.9 0.00 0.00 0.00 56 1016.3
20260507135016 14 135 4.8 12.9 0.00 0.00 0.00 59 1016.4
20260507134016 14 135 3.2 8.0 0.00 0.00 0.00 61 1016.3
20260507133016 15 135 3.2 14.5 0.00 0.00 0.00 59 1016.4
20260507132016 15 135 4.8 16.1 0.00 0.00 0.00 57 1016.2
20260507131016 15 113 3.2 12.9 0.00 0.00 0.00 59 1016.2
20260507130016 15 135 4.8 12.9 0.00 0.00 0.00 62 1016.3
20260507125016 14 135 3.2 14.5 0.00 0.00 0.00 61 1016.3
20260507124016 15 113 3.2 14.5 0.00 0.00 0.00 65 1016.4
20260507123016 15 113 3.2 6.4 0.00 0.00 0.00 63 1016.4
20260507122016 15 90 1.6 11.3 0.00 0.00 0.00 69 1016.4
20260507121016 15 135 4.8 14.5 0.00 0.00 0.00 68 1016.5
20260507120016 15 113 1.6 9.7 0.00 0.00 0.00 70 1016.5
20260507115036 14 135 3.2 14.5 0.00 0.00 0.00 69 1016.6
20260507114036 14 113 3.2 8.0 0.00 0.00 0.00 70 1016.5
20260507113016 14 135 3.2 12.9 0.00 0.00 0.00 73 1016.6
20260507112036 13 135 1.6 8.0 0.00 0.00 0.00 73 1016.5
20260507111016 13 135 1.6 9.7 0.00 0.00 0.00 74 1016.5
20260507110016 13 90 1.6 4.8 0.00 0.00 0.00 74 1016.4
20260507105016 13 90 1.6 6.4 0.00 0.00 0.00 75 1016.3
20260507104036 13 270 1.6 6.4 0.00 0.00 0.00 72 1016.5
20260507103015 13 338 1.6 8.0 0.00 0.00 0.00 73 1016.5
20260507102015 13 225 1.6 12.9 0.00 0.00 0.00 73 1016.4
20260507101016 13 270 1.6 8.0 0.00 0.00 0.00 73 1016.5
20260507100016 12 68 1.6 4.8 0.00 0.00 0.00 74 1016.6
20260507095015 12 0.0 3.2 0.00 0.00 0.00 76 1016.5
20260507094036 12 0.0 0.0 0.00 0.00 0.00 82 1016.6
20260507093015 12 248 1.6 6.4 0.00 0.00 0.00 84 1016.5
20260507092016 11 0.0 3.2 0.00 0.00 0.00 87 1016.4
20260507091016 11 0.0 0.0 0.00 0.00 0.00 89 1016.5
20260507090015 11 0.0 4.8 0.00 0.00 0.00 90 1016.5
20260507085035 11 113 1.6 4.8 0.00 0.00 0.00 90 1016.4
20260507084016 10 0.0 3.2 0.00 0.00 0.00 91 1016.5
20260507083015 10 0.0 3.2 0.00 0.00 0.00 91 1016.5
20260507082015 10 0.0 3.2 0.00 0.00 0.00 91 1016.5
20260507081015 10 0.0 0.0 0.00 0.00 0.00 91 1016.3
20260507080015 10 0.0 0.0 0.00 0.00 0.00 91 1016.4
20260507075035 10 0.0 0.0 0.00 0.00 0.00 92 1016.3
20260507074036 9 0.0 0.0 0.00 0.00 0.00 92 1016.3
20260507073038 8 0.0 0.0 0.00 0.00 0.00 91 1016.2
20260507072017 8 0.0 0.0 0.00 0.00 0.00 91 1016.2
20260507071037 8 0.0 0.0 0.00 0.00 0.00 91 1016.1
20260507070017 7 270 1.6 3.2 0.00 0.00 0.00 91 1016.0
20260507065037 7 0.0 3.2 0.00 0.00 0.00 91 1016.0
20260507064017 7 0.0 0.0 0.00 0.00 0.00 91 1015.9
20260507063017 7 0.0 0.0 0.00 0.00 0.00 91 1015.8
20260507062017 6 270 1.6 3.2 0.00 0.00 0.00 91 1015.7
20260507061017 6 270 3.2 4.8 0.00 0.00 0.00 91 1015.7
20260507060017 6 0.0 0.0 0.00 0.00 0.00 91 1015.7
20260507055017 6 270 1.6 4.8 0.00 0.00 0.00 91 1015.6
20260507054017 6 0.0 1.6 0.00 0.00 0.00 91 1015.6
20260507053017 6 270 1.6 4.8 0.00 0.00 0.00 91 1015.6
20260507052017 6 0.0 0.0 0.00 0.00 0.00 91 1015.5
20260507051037 6 0.0 0.0 0.00 0.00 0.00 91 1015.4
20260507050017 6 0.0 0.0 0.00 0.00 0.00 91 1015.4
20260507045017 6 0.0 1.6 0.00 0.00 0.00 91 1015.5
20260507044017 6 0.0 0.0 0.00 0.00 0.00 91 1015.5
20260507043017 6 0.0 0.0 0.00 0.00 0.00 90 1015.4
20260507042017 6 270 1.6 6.4 0.00 0.00 0.00 90 1015.5
20260507041018 6 0.0 0.0 0.00 0.00 0.00 90 1015.4
20260507040017 6 0.0 0.0 0.00 0.00 0.00 90 1015.5
20260507035017 6 0.0 0.0 0.00 0.00 0.00 90 1015.5
20260507034017 6 270 1.6 3.2 0.00 0.00 0.00 90 1015.5
20260507033037 6 270 1.6 4.8 0.00 0.00 0.00 90 1015.5
20260507032017 6 0.0 4.8 0.00 0.00 0.00 90 1015.4
20260507031017 6 0.0 1.6 0.00 0.00 0.00 90 1015.5
20260507030017 6 0.0 1.6 0.00 0.00 0.00 90 1015.4
20260507025017 6 0.0 1.6 0.00 0.00 0.00 90 1015.5
20260507024017 6 270 1.6 4.8 0.00 0.00 0.00 89 1015.5
20260507023017 6 270 1.6 4.8 0.00 0.00 0.00 89 1015.4
20260507022017 6 270 1.6 4.8 0.00 0.00 0.00 89 1015.3
20260507021037 6 0.0 0.0 0.00 0.00 0.00 89 1015.3
20260507020017 7 0.0 0.0 0.00 0.00 0.00 89 1015.2
20260507015057 7 0.0 0.0 0.00 0.00 0.00 89 1015.2
20260507014017 7 0.0 0.0 0.00 0.00 0.00 89 1015.3
20260507013017 7 0.0 0.0 0.00 0.00 0.00 89 1015.3
20260507012017 7 0.0 0.0 0.00 0.00 0.00 88 1015.3
20260507011017 7 0.0 0.0 0.00 0.00 0.00 88 1015.2
20260507010037 7 0.0 0.0 0.00 0.00 0.00 88 1015.3
20260507005037 7 0.0 0.0 0.00 0.00 0.00 88 1015.4
20260507004017 7 0.0 0.0 0.00 0.00 0.00 87 1015.3
20260507003017 7 0.0 0.0 0.00 0.00 0.00 87 1015.3
20260507002016 7 0.0 0.0 0.00 0.00 0.00 87 1015.3
20260507001037 8 0.0 0.0 0.00 0.00 0.00 87 1015.4
20260507000016 8 0.0 0.0 0.00 0.00 0.00 87 1015.5
20260506235017 8 0.0 0.0 0.00 0.00 0.00 86 1015.4
20260506234036 8 0.0 0.0 0.00 0.00 0.00 86 1015.4
20260506233017 8 0.0 0.0 0.00 0.00 0.00 86 1015.3
20260506232016 8 0.0 0.0 0.00 0.00 0.00 86 1015.4
20260506231015 8 0.0 0.0 0.00 0.00 0.00 86 1015.5
20260506230015 8 0.0 0.0 0.00 0.00 0.00 85 1015.5
20260506225017 8 0.0 0.0 0.00 0.00 0.00 85 1015.5
20260506224017 9 270 1.6 3.2 0.00 0.00 0.00 85 1015.6
20260506223037 9 0.0 0.0 0.00 0.00 0.00 84 1015.6
20260506222017 9 0.0 3.2 0.00 0.00 0.00 85 1015.6
20260506221017 9 270 1.6 4.8 0.00 0.00 0.00 84 1015.6
20260506220017 10 0.0 3.2 0.00 0.00 0.00 84 1015.6
20260506215017 10 270 3.2 6.4 0.00 0.00 0.00 84 1015.6
20260506214017 10 270 1.6 6.4 0.00 0.00 0.00 84 1015.6
20260506213017 10 0.0 0.0 0.00 0.00 0.00 83 1015.7
20260506212017 10 0.0 0.0 0.00 0.00 0.00 83 1015.7
20260506211017 10 0.0 0.0 0.00 0.00 0.00 83 1015.7
20260506210017 11 270 1.6 4.8 0.00 0.00 0.00 82 1015.7
20260506205017 11 0.0 0.0 0.00 0.00 0.00 82 1015.5
20260506204017 11 0.0 0.0 0.00 0.00 0.00 82 1015.4
20260506203017 11 0.0 0.0 0.00 0.00 0.00 81 1015.3
20260506202017 11 0.0 0.0 0.00 0.00 0.00 80 1015.3
20260506201057 11 0.0 0.0 0.00 0.00 0.00 80 1015.3
20260506200017 11 0.0 0.0 0.00 0.00 0.00 80 1015.3
20260506195017 11 0.0 0.0 0.00 0.00 0.00 79 1015.2
20260506194017 11 0.0 0.0 0.00 0.00 0.00 79 1015.1
20260506193017 11 0.0 0.0 0.00 0.00 0.00 79 1015.1
20260506192017 11 0.0 0.0 0.00 0.00 0.00 79 1015.0
20260506191017 11 0.0 3.2 0.00 0.00 0.00 79 1015.1
20260506190018 11 0.0 3.2 0.00 0.00 0.00 78 1015.1
20260506185017 12 270 1.6 6.4 0.00 0.00 0.00 78 1014.9
20260506184017 12 0.0 0.0 0.00 0.00 0.00 78 1014.9
20260506183037 12 270 1.6 6.4 0.00 0.00 0.00 77 1015.0
20260506182017 12 270 1.6 6.4 0.00 0.00 0.00 77 1015.0
20260506181016 12 248 3.2 6.4 0.00 0.00 0.00 77 1014.9
20260506180016 12 248 4.8 6.4 0.00 0.00 0.00 76 1014.8